GW3608 Weather Reports


time (UTC)temp
C
wind
direction
speed
KPH
gust
KPH
rain 1hr
cm
rain 24hr
cm
rain mn
cm
humidity
%
barometer
mb
20260506180015 10 360 1.6 8.0 0.03 1.02 0.97 93 1006.8
20260506174516 11 299 0.0 4.8 0.05 1.02 0.97 93 1006.5
20260506173024 12 283 0.0 12.9 0.05 1.02 0.97 94 1006.4
20260506171525 13 257 0.0 4.8 0.03 0.99 0.94 94 1006.3
20260506170009 13 193 0.0 3.2 0.05 0.99 0.94 94 1006.4
20260506164517 13 98 0.0 3.2 0.03 0.97 0.91 94 1006.5
20260506163022 13 265 0.0 3.2 0.05 0.97 0.91 94 1006.4
20260506161506 12 115 0.0 4.8 0.08 0.97 0.91 94 1006.3
20260506160007 12 81 0.0 3.2 0.10 0.94 0.89 94 1006.6
20260506154517 12 173 0.0 1.6 0.13 0.94 0.89 94 1006.6
20260506153019 12 168 0.0 4.8 0.15 0.91 0.86 94 1006.6
20260506151524 12 200 1.6 6.4 0.15 0.89 0.84 94 1006.8
20260506150006 12 157 0.0 4.8 0.13 0.84 0.79 94 1006.6
20260506144512 12 125 0.0 3.2 0.15 0.81 0.76 94 1006.4
20260506143015 12 132 0.0 4.8 0.15 0.76 0.71 94 1006.5
20260506141520 12 144 0.0 1.6 0.20 0.74 0.69 94 1006.6
20260506140024 12 134 0.0 1.6 0.25 0.71 0.66 94 1006.7
20260506134505 12 189 0.0 0.0 0.33 0.66 0.61 94 1006.9
20260506133015 12 207 0.0 3.2 0.33 0.61 0.56 94 1007.2
20260506131537 12 134 0.0 1.6 0.30 0.53 0.48 94 1007.4
20260506130033 12 188 0.0 4.8 0.25 0.46 0.41 94 1007.6
20260506124523 12 163 0.0 3.2 0.15 0.33 0.28 94 1007.6
20260506123010 11 142 1.6 6.4 0.10 0.28 0.23 94 1007.2
20260506121515 11 74 0.0 1.6 0.08 0.23 0.18 94 1007.1
20260506120021 11 348 0.0 1.6 0.05 0.20 0.15 94 1007.0
20260506114523 11 20 0.0 0.0 0.03 0.18 0.13 94 1007.5
20260506113024 10 20 0.0 0.0 0.05 0.20 0.13 94 1007.5
20260506111526 10 20 0.0 0.0 0.05 0.18 0.10 94 1007.6
20260506110017 10 20 0.0 1.6 0.05 0.18 0.10 93 1007.5
20260506104519 10 20 0.0 0.0 0.05 0.18 0.10 93 1007.6
20260506103032 10 20 0.0 0.0 0.03 0.15 0.08 93 1007.6
20260506101528 10 20 0.0 0.0 0.00 0.13 0.05 93 1007.2
20260506100034 10 20 0.0 0.0 0.03 0.13 0.05 92 1007.0
20260506094526 10 20 0.0 0.0 0.03 0.13 0.05 92 1007.0
20260506093023 10 20 0.0 0.0 0.05 0.13 0.05 91 1007.1
20260506091528 10 44 0.0 1.6 0.05 0.13 0.05 91 1007.3
20260506090027 10 52 0.0 0.0 0.03 0.10 0.03 89 1007.5
20260506084530 10 52 0.0 0.0 0.03 0.10 0.03 88 1007.7
20260506083022 10 55 0.0 1.6 0.00 0.08 0.00 87 1007.7
20260506081530 10 5 0.0 0.0 0.00 0.08 0.00 87 1007.7
20260506073018 10 321 0.0 3.2 0.00 0.08 0.00 86 1007.7
20260506071524 10 346 0.0 1.6 0.00 0.08 0.00 87 1007.7
20260506061522 10 26 0.0 4.8 0.00 0.08 0.00 86 1008.2
20260506044525 10 360 0.0 3.2 0.00 0.08 0.00 88 1009.4
20260506043008 10 316 0.0 1.6 0.00 0.08 0.00 87 1009.4
20260506041517 11 42 0.0 4.8 0.00 0.08 0.00 86 1009.4
20260506040019 11 54 0.0 4.8 0.00 0.08 0.00 86 1009.6
20260506034524 11 330 0.0 1.6 0.00 0.08 0.08 86 1009.9
20260506033025 11 308 0.0 3.2 0.00 0.08 0.08 86 1010.1
20260506031512 11 285 0.0 6.4 0.00 0.08 0.08 85 1009.7
20260506030025 12 352 0.0 11.3 0.00 0.08 0.08 84 1009.8
20260506024536 12 321 1.6 12.9 0.00 0.08 0.08 84 1009.8
20260506023023 13 302 0.0 6.4 0.00 0.08 0.08 85 1009.7
20260506021529 13 60 0.0 4.8 0.00 0.08 0.08 86 1009.5
20260506020014 14 349 0.0 4.8 0.00 0.08 0.08 86 1009.4
20260506014521 14 38 0.0 4.8 0.00 0.08 0.08 84 1009.3
20260506013025 15 352 0.0 4.8 0.00 0.08 0.08 84 1009.2
20260506011525 15 78 0.0 6.4 0.00 0.08 0.08 85 1008.9
20260506010032 15 323 0.0 1.6 0.00 0.08 0.08 87 1009.0
20260506004518 15 164 0.0 0.0 0.00 0.08 0.08 87 1008.2
20260506003022 14 164 0.0 1.6 0.00 0.08 0.08 86 1008.0
20260506001532 15 164 0.0 0.0 0.00 0.08 0.08 85 1008.0
20260506000025 15 164 0.0 0.0 0.00 0.08 0.08 82 1007.8
20260505234535 16 215 0.0 1.6 0.00 0.08 0.08 79 1007.9
20260505233021 16 250 0.0 1.6 0.00 0.08 0.08 79 1007.9
20260505231526 16 253 0.0 3.2 0.03 0.08 0.08 79 1007.7
20260505230044 16 238 0.0 3.2 0.03 0.08 0.08 80 1007.9
20260505224511 16 250 0.0 4.8 0.03 0.08 0.08 83 1007.7
20260505223014 16 303 0.0 0.0 0.03 0.08 0.08 83 1007.5
20260505221522 16 178 0.0 1.6 0.00 0.05 0.05 80 1007.9
20260505220006 17 121 0.0 3.2 0.00 0.05 0.05 79 1007.0
20260505214510 17 197 0.0 1.6 0.00 0.05 0.05 77 1007.2
20260505213015 18 253 0.0 3.2 0.00 0.05 0.05 73 1006.9
20260505211520 18 146 0.0 6.4 0.00 0.05 0.05 74 1006.8
20260505210024 17 153 0.0 6.4 0.00 0.05 0.05 75 1007.0
20260505204508 17 238 0.0 3.2 0.03 0.05 0.05 76 1007.1
20260505203015 16 256 1.6 6.4 0.03 0.05 0.05 80 1007.4
20260505201515 16 267 1.6 8.0 0.03 0.05 0.05 81 1007.4
20260505200020 16 282 0.0 19.3 0.03 0.05 0.05 81 1007.6
20260505194526 21 270 11.3 20.9 0.00 0.03 0.03 56 1007.9
20260505193010 22 157 1.6 12.9 0.00 0.03 0.03 40 1005.3
20260505191515 23 121 3.2 16.1 0.00 0.03 0.03 39 1005.1
20260505190018 24 263 4.8 14.5 0.00 0.03 0.03 41 1005.2
20260505184522 23 262 1.6 16.1 0.00 0.03 0.03 45 1005.6
20260505183034 23 271 3.2 11.3 0.00 0.03 0.03 51 1005.9
20260505181514 22 228 1.6 16.1 0.00 0.03 0.03 54 1006.4